Orbital Elements at Epoch 2459200.5 (2020-Dec-17.0) TDB
Reference: JPL 36 (heliocentric ecliptic J2000)
Element | Value | Uncertainty (1-sigma) | Units |
e | .207441515084229 | 3.1344e-08 | |
a | 2.397941118040362 | 7.0141e-09 | au |
q | 1.900508579431299 | 7.7179e-08 | au |
i | 3.26298701555513 | 3.2202e-06 | deg |
node | 101.0810931273308 | 6.19e-05 | deg |
peri | 245.8582916243307 | 6.238e-05 | deg |
M | 342.567572870796 | 8.9841e-06 | deg |
tp | 2459266.176735320081 (2021-Feb-20.67673532) | 3.3985e-05 | TDB |
period | 1356.301365265422 3.71 | 5.9509e-06 1.629e-08 | d yr |
n | .2654277354720128 | 1.1646e-09 | deg/d |
Q | 2.895373656649425 | 8.4691e-09 | au |
|
| | Orbit Determination Parameters
Additional Information
|